User: anonymous   Login
Location: *
(43.4667°N, 11.6833°E)
Time: 05:46:12
(UTC+00:00)
Language:

Cosmos 1400 Rocket - Orbit

View from above orbital plane
View from above orbital plane
View from above satellite
View from above satellite

Ground track
Ground track

The orbit data is extracted from the following two-line orbital elements,

1 13403U 82079B   19257.54768303 -.00000247  00000-0 -17875-4 0  9994
2 13403  81.1679  50.4740 0035237  96.3114 264.2125 15.07045512 20115
Epoch (UTC): 14 September 2019 13:08:39
Eccentricity: 0.0035237
inclination: 81.1679°
perigee height: 521 km
apogee height: 569 km
right ascension of ascending node: 50.4740°
argument of perigee: 96.3114°
revolutions per day: 15.07045512
mean anomaly at epoch: 264.2125°
orbit number at epoch: 2011

The dashed part of the orbit path shows where the satellite is in the earth's shadow,  

DLR